TimeCST,TemperatureF,Dew PointF,Humidity,Sea Level PressureIn,VisibilityMPH,Wind Direction,Wind SpeedMPH,Gust SpeedMPH,PrecipitationIn,Events,Conditions,WindDirDegrees,DateUTC
12:52 AM,43.0,26.1,51,30.31,-9999.0,SSE,5.8,-,N/A,,Unknown,150,2012-11-15 06:52:00
1:52 AM,41.0,26.1,55,30.31,-9999.0,SE,3.5,-,N/A,,Unknown,140,2012-11-15 07:52:00
2:52 AM,39.0,25.0,57,30.32,-9999.0,SSE,3.5,-,N/A,,Unknown,150,2012-11-15 08:52:00
3:52 AM,37.9,26.1,62,30.31,-9999.0,SSE,3.5,-,N/A,,Unknown,160,2012-11-15 09:52:00
4:52 AM,37.0,25.0,62,30.31,-9999.0,SSE,3.5,-,N/A,,Unknown,150,2012-11-15 10:52:00
5:52 AM,37.0,28.0,70,30.32,-9999.0,Calm,Calm,-,N/A,,Unknown,0,2012-11-15 11:52:00
6:52 AM,35.1,27.0,72,30.34,-9999.0,Calm,Calm,-,N/A,,Unknown,0,2012-11-15 12:52:00
7:52 AM,37.9,26.1,62,30.35,-9999.0,Calm,Calm,-,N/A,,Unknown,0,2012-11-15 13:52:00
8:52 AM,41.0,28.0,60,30.36,-9999.0,SE,3.5,-,N/A,,Unknown,130,2012-11-15 14:52:00
9:52 AM,46.9,30.0,52,30.35,-9999.0,South,6.9,-,N/A,,Unknown,190,2012-11-15 15:52:00
10:52 AM,52.0,33.1,49,30.35,-9999.0,SSW,6.9,-,N/A,,Unknown,200,2012-11-15 16:52:00
11:52 AM,55.0,35.1,47,30.32,-9999.0,South,6.9,-,N/A,,Unknown,170,2012-11-15 17:52:00
12:52 PM,57.0,33.1,40,30.31,-9999.0,South,6.9,-,N/A,,Unknown,180,2012-11-15 18:52:00
1:52 PM,57.9,35.1,42,30.30,-9999.0,South,9.2,-,N/A,,Unknown,180,2012-11-15 19:52:00
2:52 PM,57.9,34.0,41,30.31,-9999.0,SSW,6.9,-,N/A,,Unknown,200,2012-11-15 20:52:00
3:52 PM,55.9,35.1,45,30.32,-9999.0,SSW,3.5,-,N/A,,Unknown,200,2012-11-15 21:52:00
4:52 PM,53.1,37.0,55,30.34,-9999.0,Calm,Calm,-,N/A,,Unknown,0,2012-11-15 22:52:00
5:52 PM,46.9,37.0,68,30.36,-9999.0,Calm,Calm,-,N/A,,Unknown,0,2012-11-15 23:52:00
6:52 PM,46.9,37.0,68,30.38,-9999.0,Calm,Calm,-,N/A,,Unknown,0,2012-11-16 00:52:00
7:52 PM,46.0,37.9,73,30.38,-9999.0,Calm,Calm,-,N/A,,Unknown,0,2012-11-16 01:52:00
8:52 PM,39.9,35.1,83,30.40,-9999.0,Calm,Calm,-,N/A,,Unknown,0,2012-11-16 02:52:00
9:52 PM,37.9,33.1,83,30.41,-9999.0,Calm,Calm,-,N/A,,Unknown,0,2012-11-16 03:52:00
10:52 PM,35.1,32.0,89,30.42,-9999.0,Calm,Calm,-,N/A,,Unknown,0,2012-11-16 04:52:00
11:52 PM,35.1,30.9,85,30.42,-9999.0,Calm,Calm,-,N/A,,Unknown,0,2012-11-16 05:52:00